CW2099 Weather Reports


Display with metric or nautical units.
time (UTC)temp
F
wind
direction
speed
MPH
gust
MPH
rain 1hr
in
rain 24hr
in
rain mn
in
humidity
%
barometer
mb
20260902140021 62 48 2.0 5.0 0.00 0.12 0.12 86 1012.1
20260902134521 62 25 1.0 3.0 0.00 0.12 0.12 86 1012.5
20260902133020 61 33 0.0 3.0 0.00 0.12 0.12 86 1012.3
20260902131535 61 323 0.0 1.0 0.00 0.12 0.12 86 1012.5
20260902130024 61 315 0.0 0.0 0.00 0.12 0.12 86 1012.3
20260902124520 61 270 0.0 0.0 0.01 0.12 0.12 85 1012.0
20260902123020 61 270 0.0 1.0 0.01 0.12 0.12 85 1012.0
20260902121518 61 270 0.0 0.0 0.02 0.12 0.12 85 1011.8
20260902120020 61 270 0.0 0.0 0.02 0.12 0.12 85 1011.6
20260902114519 61 270 0.0 1.0 0.03 0.11 0.11 85 1011.6
20260902113017 60 270 0.0 1.0 0.07 0.11 0.11 85 1011.3
20260902111518 61 270 0.0 4.0 0.10 0.10 0.10 84 1010.8
20260902110023 61 272 0.0 2.0 0.10 0.10 0.10 84 1010.3
20260902104513 61 273 2.0 10.0 0.08 0.08 0.08 85 1011.1
20260902103010 60 44 0.0 2.0 0.05 0.05 0.05 76 1014.2
20260902101507 61 44 0.0 3.0 0.00 0.00 0.00 71 1014.5
20260902100006 61 44 0.0 2.0 0.00 0.00 0.00 69 1014.2
20260902094501 62 44 0.0 1.0 0.00 0.00 0.00 66 1013.6
20260902093104 63 44 0.0 0.0 0.00 0.00 0.00 65 1013.1
20260902091553 63 44 0.0 0.0 0.00 0.00 0.00 63 1012.3
20260902090052 63 44 0.0 0.0 0.00 0.00 0.00 64 1011.9
20260902084551 63 44 0.0 0.0 0.00 0.00 0.00 64 1011.8
20260902083051 63 44 0.0 0.0 0.00 0.00 0.00 65 1011.8
20260902081550 63 44 0.0 0.0 0.00 0.00 0.00 64 1011.8
20260902074557 63 44 0.0 1.0 0.00 0.00 0.00 63 1011.4
20260902073046 63 44 0.0 0.0 0.00 0.00 0.00 63 1011.1
20260902071544 64 44 0.0 0.0 0.00 0.00 0.00 63 1011.2
20260902070043 63 44 0.0 0.0 0.00 0.00 0.00 62 1011.3
20260902064544 64 44 0.0 0.0 0.00 0.00 0.00 62 1011.7
20260902063039 64 44 0.0 0.0 0.00 0.00 0.00 62 1011.7
20260902061554 64 44 0.0 0.0 0.00 0.00 0.00 63 1011.8
20260902060049 64 44 0.0 0.0 0.00 0.00 0.00 62 1011.8
20260902054544 64 44 0.0 0.0 0.00 0.00 0.00 62 1011.8
20260902053038 64 44 0.0 0.0 0.00 0.00 0.00 62 1011.8
20260902051533 65 44 0.0 0.0 0.00 0.00 0.00 61 1011.7
20260902050033 65 44 0.0 0.0 0.00 0.00 0.00 61 1011.7
20260902044537 65 44 0.0 0.0 0.00 0.00 0.00 61 1011.8
20260902043030 66 44 0.0 0.0 0.00 0.00 0.00 61 1011.8
20260902041535 66 44 0.0 0.0 0.00 0.00 0.00 61 1011.8
20260902040029 66 44 0.0 0.0 0.00 0.00 0.00 59 1011.8
20260902034530 67 44 0.0 0.0 0.00 0.00 0.00 59 1011.8
20260902033028 67 44 0.0 0.0 0.00 0.00 0.00 59 1011.6
20260902031528 67 44 0.0 0.0 0.00 0.00 0.00 59 1011.5
20260902030029 68 44 0.0 0.0 0.00 0.00 0.00 57 1011.3
20260902024532 68 44 0.0 0.0 0.00 0.00 0.00 55 1011.1
20260902023029 69 44 0.0 0.0 0.00 0.00 0.00 53 1011.2
20260902021528 70 44 0.0 0.0 0.00 0.00 0.00 53 1011.2
20260902020027 70 44 0.0 0.0 0.00 0.00 0.00 51 1011.2
20260902014527 71 44 0.0 0.0 0.00 0.00 0.00 49 1011.2
20260902013027 71 44 0.0 0.0 0.00 0.00 0.00 51 1010.9
20260902011527 72 44 0.0 0.0 0.00 0.00 0.00 51 1010.7
20260902010027 73 44 0.0 0.0 0.00 0.00 0.00 51 1010.6
20260902004527 74 44 0.0 0.0 0.00 0.00 0.00 52 1010.1
20260902003027 74 44 0.0 0.0 0.00 0.00 0.00 54 1010.1
20260902001534 76 44 0.0 0.0 0.00 0.00 0.00 53 1010.1
20260902000029 76 44 0.0 0.0 0.00 0.00 0.00 51 1010.1
20260901234525 77 44 0.0 0.0 0.00 0.00 0.00 50 1010.2
20260901233025 77 44 0.0 0.0 0.00 0.00 0.00 49 1010.1
20260901231524 78 44 0.0 0.0 0.00 0.00 0.00 47 1010.1
20260901230025 79 44 0.0 0.0 0.00 0.00 0.00 45 1010.2
20260901224524 80 44 0.0 0.0 0.00 0.00 0.00 42 1010.3
20260901223025 81 44 0.0 0.0 0.00 0.00 0.00 40 1010.3
20260901221524 82 44 0.0 2.0 0.00 0.00 0.00 36 1010.1
20260901220024 83 44 0.0 0.0 0.00 0.00 0.00 38 1010.1
20260901214524 83 25 0.0 2.0 0.00 0.00 0.00 38 1010.0
20260901213023 83 38 0.0 1.0 0.00 0.00 0.00 36 1010.0
20260901211524 84 37 0.0 4.0 0.00 0.00 0.00 32 1010.0
20260901210022 85 40 0.0 2.0 0.00 0.00 0.00 35 1010.0
20260901204521 86 56 0.0 2.0 0.00 0.00 0.00 31 1010.1
20260901203024 86 20 0.0 4.0 0.00 0.00 0.00 27 1010.2
20260901201516 86 11 0.0 4.0 0.00 0.00 0.00 28 1010.3
20260901200016 86 79 0.0 5.0 0.00 0.00 0.00 27 1010.4
20260901194514 86 42 0.0 3.0 0.00 0.00 0.00 26 1010.4
20260901193014 86 24 0.0 4.0 0.00 0.00 0.00 26 1010.5
20260901191519 85 51 0.0 2.0 0.00 0.00 0.00 35 1010.8
20260901190010 85 59 0.0 4.0 0.00 0.00 0.00 32 1010.9
20260901184507 85 304 0.0 1.0 0.00 0.00 0.00 30 1011.1
20260901183004 84 42 1.0 6.0 0.00 0.00 0.00 32 1011.3
20260901181503 83 9 0.0 0.0 0.00 0.00 0.00 35 1011.4
20260901174556 82 36 0.0 2.0 0.00 0.00 0.00 33 1011.7
20260901173101 81 305 0.0 0.0 0.00 0.00 0.00 40 1011.8
20260901171601 81 22 0.0 0.0 0.00 0.00 0.00 41 1012.1
20260901170050 80 28 0.0 0.0 0.00 0.00 0.00 43 1012.4
20260901164549 80 350 0.0 0.0 0.00 0.00 0.00 42 1012.4
20260901163046 79 25 0.0 0.0 0.00 0.00 0.00 42 1012.4
20260901161600 79 26 0.0 0.0 0.00 0.00 0.00 45 1012.6
20260901160041 77 25 0.0 0.0 0.00 0.00 0.00 58 1012.7
20260901154550 77 25 0.0 0.0 0.00 0.00 0.00 61 1012.8
20260901153043 76 25 0.0 0.0 0.00 0.00 0.00 62 1012.7
20260901151534 76 25 0.0 0.0 0.00 0.00 0.00 63 1012.7
20260901150038 74 25 0.0 0.0 0.00 0.00 0.00 66 1012.4
20260901144537 73 25 0.0 0.0 0.00 0.00 0.00 79 1012.4
20260901143025 72 25 0.0 0.0 0.00 0.00 0.00 78 1012.4
20260901141523 71 25 0.0 0.0 0.00 0.00 0.00 81 1012.4